Location: Les Moreaux
(47.2278°N, 1.4966°E)
Time: 15:25:18
(UTC+00:00)

IRS-1C Rocket - Pass Details

Date: 19 May 2025
Orbit: 798 x 805 km, 98.8° (Epoch: 17 June)

Event Time Altitude Azimuth Distance (km) Brightness Sun altitude
Exits shadow 21:15:28 17° 171° (S) 1,933 5.6 -14.3°
Maximum altitude 21:19:35 76° 256° (WSW) 831 4.2 -14.7°
Drops below altitude 10° 21:24:53 10° 343° (NNW) 2,391 7.8 -15.2°
Sets 21:27:14 0° 345° (NNW) 3,325 8.7 -15.5°
